Meteopurmerend
purmerend
Purmerend - Baaienwijk



My webcam  My webcam


Onweer radar Meer informatie blitzortung!


Regen radar Meer informatie rain snow radar


Bezoek onze andere website:

CandyAppleRed WebdesignWebdesign Purmerend Candy Apple Red

MeteopurmerendBlog

Template documentation
and downloads



We konden geen weer-waarchuwingen ophalen. Ga rechtstreeks naar de Meteoalarm site : www.meteoalarm.eu en controleer daar .

15 daagse weersverwachting Naas, Leixlip (IE)

  • Overzicht
  • Per uur
  • 15 dagen
  • Extra
  • Vergelijk
  • Kaarten
  • Dagkaart
  • Meer »
  • Info
  • Statistieken
  • Directe link
    Temp 6h Neerslag Wind  
 06:08     20:53    Daglengte: 14:45 Morgen
01:00
18°
 
1
07:00
17°
6.3 mm
1
13:00
20°
9.8 mm
3
19:00
20°
 
3
 06:10     20:51    Daglengte: 14:41 Dinsdag 16 Aug
01:00
16°
 
4
07:00
15°
 
5
13:00
18°
 
6
19:00
17°
 
7
 06:12     20:49    Daglengte: 14:37 Woensdag 17 Aug
01:00
13°
 
6
07:00
12°
 
4
13:00
18°
 
5
Locatie info
Region: Kildare
Latitude: 53.3644°N
Longitude: -6.4876°E
48 masl
Postcode: -1
Temp/Neerslag /Baro Onweer/Dauwpunt
    Temp Baro 1h Neerslag Dauwpunt Wind UV Bewolking  
 06:07     20:55    Daglengte: 14:48 Vandaag
21:00
21°
1005.1 hPa
46%
14.1°
2
Windvlaag: 0.1 m/s
85%
22:00
20°
1004.8 hPa
69%
14.2°
2
Windvlaag: 1.6 m/s
86%
23:00
19°
1004.4 hPa
76%
14.4°
2
Windvlaag: 2.3 m/s
82%
 06:08     20:53    Daglengte: 14:45 Morgen
00:00
18°
1004.1 hPa
80%
15.3°
1
Windvlaag: 2.3 m/s
86%
01:00
18°
1004.1 hPa
81%
15.3°
1
Windvlaag: 1 m/s
86%
02:00
18°
1003.8 hPa
82%
15.0°
1
Windvlaag: 0.2 m/s
86%
03:00
18°
1003.4 hPa 0.6 mm
82%
14.7°
1
Windvlaag: 1 m/s
79%
04:00
17°
1003.2 hPa 1.2 mm
82%
14.6°
1
Windvlaag: 3.6 m/s
86%
05:00
17°
1002.7 hPa 1.7 mm
82%
14.6°
1
Windvlaag: 4.1 m/s
86% warningclass
06:00
17°
1002.5 hPa 1.6 mm
82%
15.0°
2
Windvlaag: 2.5 m/s
86%
07:00
17°
1002.5 hPa 1.2 mm
82%
15.3°
1
Windvlaag: 1.8 m/s
86%
08:00
17°
1002.7 hPa 2.1 mm
82%
15.6°
2
Windvlaag: -0.3 m/s
86%
09:00
17°
1002.9 hPa 3.7 mm
82%
15.4°
3
Windvlaag: 1 m/s
83%
10:00
17°
1003.1 hPa 4.0 mm
82%
15.4°
3
Windvlaag: 0.9 m/s
68%
11:00
18°
1003.1 hPa
82%
15.3°
2
Windvlaag: 0.8 m/s
61%
12:00
19°
1003.0 hPa
82%
14.1°
3
Windvlaag: 1 m/s
81%
13:00
20°
1003.1 hPa
82%
14.4°
3
Windvlaag: 0.9 m/s
79%
14:00
21°
1003.0 hPa
82%
15.3°
3
Windvlaag: 0.7 m/s
75%
15:00
21°
1002.9 hPa
82%
15.8°
3
Windvlaag: 0.5 m/s
45%
16:00
21°
1002.7 hPa
82%
16.0°
3
Windvlaag: -3.7 m/s
55%
17:00
21°
1002.8 hPa
82%
15.5°
3
Windvlaag: -4.2 m/s
35%
18:00
21°
1002.9 hPa
82%
15.4°
3
Windvlaag: -4.1 m/s
27%
19:00
20°
1003.2 hPa
82%
15.0°
3
Windvlaag: -6.2 m/s
59%
20:00
19°
1003.9 hPa
81%
14.2°
3
Windvlaag: -7.1 m/s
60%
21:00
18°
1004.7 hPa
82%
14.2°
3
Windvlaag: -5.9 m/s
73%
22:00
17°
1005.3 hPa
82%
14.6°
3
Windvlaag: -4.8 m/s
79%
23:00
17°
1005.6 hPa
77%
14.9°
3
Windvlaag: -4.6 m/s
67%
 06:10     20:51    Daglengte: 14:41 Dinsdag 16 Aug
00:00
16°
1005.9 hPa
79%
14.6°
3
Windvlaag: -3.3 m/s
65%
01:00
16°
1006.0 hPa
67%
14.2°
4
Windvlaag: -4.7 m/s
63%
02:00
15°
1006.2 hPa
58%
13.9°
4
Windvlaag: -5.1 m/s
83%
03:00
15°
1006.2 hPa
25%
13.6°
4
Windvlaag: -5.1 m/s
85%
04:00
15°
1006.3 hPa
59%
13.6°
4
Windvlaag: -5.4 m/s
73%
05:00
15°
1006.5 hPa
17%
13.6°
5
Windvlaag: -5.3 m/s
70%
06:00
15°
1006.7 hPa
51%
13.3°
5
Windvlaag: -5.4 m/s
69%
07:00
15°
1007.4 hPa
54%
13.4°
5
Windvlaag: -5.7 m/s
75%
08:00
15°
1007.7 hPa
14%
13.4°
5
Windvlaag: -4.5 m/s
54%
09:00
15°
1008.1 hPa
15%
13.0°
6
Windvlaag: -4.2 m/s
53%
10:00
16°
1008.6 hPa
49%
13.7°
6
Windvlaag: -4.6 m/s
62%
11:00
17°
1008.8 hPa
15%
13.6°
6
Windvlaag: -5.2 m/s
70%
12:00
17°
1008.8 hPa
17%
13.6°
7
Windvlaag: -5.4 m/s
64%
13:00
18°
1009.0 hPa
22%
14.2°
6
Windvlaag: -6 m/s
49%
14:00
19°
1009.5 hPa
23%
14.5°
6
Windvlaag: -6.3 m/s
47%
15:00
20°
1009.6 hPa
14%
14.6°
7
Windvlaag: -7.1 m/s
45%
16:00
19°
1010.4 hPa
22%
10.9°
8
Windvlaag: -7.7 m/s
75%
17:00
19°
1010.6 hPa
23%
10.5°
8
Windvlaag: -8 m/s
67%
18:00
18°
1011.0 hPa
29%
8.9°
8
Windvlaag: -9.1 m/s
65%
19:00
17°
1011.6 hPa
79%
8.2°
7
Windvlaag: -9 m/s
63%
20:00
16°
1012.3 hPa
30%
9.0°
7
Windvlaag: -9 m/s
81%
21:00
15°
1013.3 hPa
35%
10.1°
7
Windvlaag: -8.5 m/s
75%
22:00
15°
1013.8 hPa
37%
10.6°
6
Windvlaag: -8.2 m/s
80%
23:00
14°
1014.4 hPa
82%
10.5°
6
Windvlaag: -7.9 m/s
68%
 06:12     20:49    Daglengte: 14:37 Woensdag 17 Aug
00:00
14°
1014.8 hPa
81%
9.9°
6
Windvlaag: -8.1 m/s
65%
01:00
13°
1014.9 hPa
86%
9.8°
6
Windvlaag: -7.5 m/s
71%
02:00
13°
1015.2 hPa
40%
9.2°
5
Windvlaag: -6.8 m/s
61%
03:00
13°
1015.2 hPa
39%
9.1°
5
Windvlaag: -6.7 m/s
64%
04:00
12°
1015.6 hPa
79%
9.3°
5
Windvlaag: -6 m/s
66%
05:00
12°
1015.6 hPa
39%
10.4°
4
Windvlaag: -4.9 m/s
55%
06:00
12°
1016.1 hPa
82%
10.1°
4
Windvlaag: -3.8 m/s
46%
07:00
12°
1016.7 hPa
83%
9.2°
4
Windvlaag: -3.4 m/s
27%
08:00
12°
1017.2 hPa
82%
8.5°
4
Windvlaag: -3.3 m/s
27%
09:00
14°
1017.3 hPa
32%
7.9°
4
Windvlaag: -3.9 m/s
24%
10:00
15°
1017.6 hPa
22%
7.6°
5
Windvlaag: -4.2 m/s
22%
11:00
17°
1016.8 hPa
21%
7.4°
6
Windvlaag: 6.1 m/s
32%
12:00
17°
1017.0 hPa
22%
7.1°
5
Windvlaag: 5.4 m/s
4%
13:00
18°
1017.2 hPa
21%
6.0°
5
Windvlaag: 4.6 m/s
4%
14:00
19°
1017.0 hPa
21%
4.6°
5
Windvlaag: 3.9 m/s
5%
15:00
19°
1016.9 hPa
21%
3.6°
4
Windvlaag: 3.6 m/s
15%
16:00
20°
1016.5 hPa
21%
3.1°
4
Windvlaag: 3.4 m/s
8%
17:00
19°
1016.5 hPa
21%
2.6°
4
Windvlaag: 3.1 m/s
10%
18:00
19°
1016.5 hPa
21%
2.9°
4
Windvlaag: 3.1 m/s
16%
19:00
18°
1016.4 hPa
21%
3.1°
3
Windvlaag: 2.6 m/s
59%
Temp/Neerslag /Baro Onweer/Dauwpunt
    Temp Baro Neerslag Dauwpunt Wind Bewolking  
 06:07     20:55    Daglengte: 14:48 Vandaag
22:00
20°
1004.8 hPa   14.2°
2
86%
 06:08     20:53    Daglengte: 14:45 Morgen
01:00
18°
1004.1 hPa   15.3°
1
86%
04:00
17°
1003.2 hPa 1.8 mm 14.6°
1
86%
07:00
17°
1002.5 hPa 4.5 mm 15.3°
1
86%
10:00
17°
1003.1 hPa 9.8 mm 15.4°
3
68%
13:00
20°
1003.1 hPa   14.4°
3
79%
16:00
21°
1002.7 hPa   16.0°
3
55%
19:00
20°
1003.2 hPa   15.0°
3
59%
22:00
17°
1005.3 hPa   14.6°
3
79%
 06:10     20:51    Daglengte: 14:41 Dinsdag 16 Aug
01:00
16°
1006.0 hPa   14.2°
4
63%
04:00
15°
1006.3 hPa   13.6°
4
73%
07:00
15°
1007.4 hPa   13.4°
5
75%
10:00
16°
1008.6 hPa   13.7°
6
62%
13:00
18°
1009.0 hPa   14.2°
6
49%
16:00
19°
1010.4 hPa   10.9°
8
75%
19:00
17°
1011.6 hPa   8.2°
7
63%
22:00
15°
1013.8 hPa   10.6°
6
80%
 06:12     20:49    Daglengte: 14:37 Woensdag 17 Aug
01:00
13°
1014.9 hPa   9.8°
6
71%
04:00
12°
1015.6 hPa   9.3°
5
66%
07:00
12°
1016.7 hPa   9.2°
4
27%
10:00
15°
1017.6 hPa   7.6°
5
22%
13:00
18°
1017.2 hPa   6.0°
5
4%
16:00
20°
1016.5 hPa   3.1°
4
8%
19:00
18°
1016.4 hPa   3.1°
3
59%
22:00
13°
1019.7 hPa 18.2 mm 10.6°
2
1%
 06:13     20:47    Daglengte: 14:34 Donderdag 18 Aug
01:00
13°
1019.1 hPa 18.2 mm 9.6°
2
1%
04:00
14°
1017.5 hPa 18.2 mm 9.8°
3
1%
07:00
12°
1016.3 hPa 20.0 mm 10.9°
4
1%
10:00
14°
1016.1 hPa 20.2 mm 13.1°
5
1%
13:00
16°
1015.5 hPa 20.2 mm 14.4°
4
1%
16:00
19°
1014.2 hPa 20.4 mm 16.0°
3
1%
19:00
19°
1012.8 hPa 22.0 mm 17.3°
3
1%
22:00
17°
1011.6 hPa 27.1 mm 16.7°
4
1%
 06:15     20:45    Daglengte: 14:30 Vrijdag 19 Aug
01:00
17°
1010.9 hPa 33.0 mm 16.1°
4
1%
04:00
13°
1011.9 hPa 33.2 mm 12.4°
5
1%
07:00
11°
1012.9 hPa 33.3 mm 10.9°
4
0%
10:00
15°
1013.2 hPa 33.3 mm 12.1°
5
1%
13:00
18°
1013.3 hPa 33.6 mm 13.0°
7
1%
16:00
19°
1014.0 hPa 33.7 mm 8.3°
7
0%
19:00
16°
1015.8 hPa 33.7 mm 10.0°
5
1%
22:00
12°
1017.8 hPa 33.8 mm 10.1°
3
0%
 06:17     20:42    Daglengte: 14:25 Zaterdag 20 Aug
01:00
10°
1019.0 hPa 33.8 mm 9.5°
3
0%
04:00
10°
1019.0 hPa 33.8 mm 9.6°
4
1%
07:00
11°
1019.5 hPa 33.8 mm 9.5°
5
1%
10:00
16°
1019.6 hPa 33.8 mm 11.1°
6
0%
13:00
20°
1018.7 hPa 33.8 mm 11.0°
7
0%
16:00
20°
1017.9 hPa 33.8 mm 12.2°
7
1%
19:00
19°
1017.1 hPa 33.8 mm 13.9°
5
1%
22:00
14°
1017.0 hPa 35.0 mm 13.7°
3
1%
 06:19     20:40    Daglengte: 14:21 Zondag 21 Aug
01:00
14°
1014.8 hPa 37.2 mm 12.8°
5
1%
04:00
15°
1011.8 hPa 40.5 mm 14.5°
4
1%
07:00
16°
1011.5 hPa 42.0 mm 16.1°
4
1%
10:00
18°
1012.0 hPa 42.2 mm 16.5°
5
1%
13:00
21°
1010.6 hPa 42.5 mm 16.7°
6
1%
16:00
19°
1010.0 hPa 42.9 mm 17.3°
5
1%
19:00
18°
1007.6 hPa 90.7 mm 17.2°
8
1%
 06:20     20:38    Daglengte: 14:18 Maandag 22 Aug
01:00
17°
1008.1 hPa 96.3 mm 15.3°
9
1%
07:00
16°
1010.0 hPa 96.5 mm 15.0°
5
1%
13:00
21°
1010.8 hPa 97.4 mm 16.1°
6
1%
19:00
19°
1010.4 hPa 98.6 mm 15.0°
6
1%
 06:22     20:36    Daglengte: 14:14 Dinsdag 23 Aug
01:00
13°
1013.0 hPa 99.0 mm 10.8°
5
0%
07:00
14°
1013.0 hPa 99.3 mm 11.5°
4
1%
13:00
17°
1013.9 hPa 99.9 mm 10.9°
7
1%
19:00
16°
1014.7 hPa 100.4 mm 11.0°
5
1%
 06:24     20:33    Daglengte: 14:09 Woensdag 24 Aug
01:00
13°
1017.7 hPa 100.8 mm 10.4°
5
0%
07:00
13°
1020.0 hPa 100.9 mm 12.0°
3
1%
13:00
16°
1023.4 hPa 101.1 mm 11.0°
3
1%
19:00
19°
1017.8 hPa 0.8 mm 14.2°
1
66%
 06:26     20:31    Daglengte: 14:05 Donderdag 25 Aug
01:00
14°
1018.8 hPa 0.5 mm 11.9°
1
49%
07:00
13°
1018.9 hPa   11.5°
1
49%
13:00
21°
1019.3 hPa 0.2 mm 13.6°
1
57%
19:00
19°
1018.7 hPa 0.6 mm 14.6°
0
59%
 06:27     20:29    Daglengte: 14:02 Vrijdag 26 Aug
01:00
14°
1019.6 hPa 0.2 mm 12.7°
0
53%
07:00
13°
1019.6 hPa 0.5 mm 11.8°
0
55%
13:00
20°
1020.0 hPa 0.4 mm 12.9°
1
55%
19:00
18°
1019.8 hPa 0.7 mm 13.4°
1
50%
 06:29     20:26    Daglengte: 13:57 Zaterdag 27 Aug
01:00
13°
1021.0 hPa 0.1 mm 11.7°
1
46%
07:00
12°
1021.1 hPa   11.1°
1
43%
13:00
20°
1021.5 hPa 0.2 mm 12.7°
1
55%
19:00
18°
1020.9 hPa 0.7 mm 13.4°
1
54%
 06:31     20:24    Daglengte: 13:53 Zondag 28 Aug
01:00
13°
1021.9 hPa 0.2 mm 11.9°
0
48%
07:00
13°
1021.3 hPa 0.4 mm 11.5°
0
52%
13:00
20°
1021.3 hPa 0.4 mm 13.3°
1
57%
19:00
18°
1020.4 hPa 0.5 mm 14.1°
1
61%
 06:32     20:22    Daglengte: 13:50 Maandag 29 Aug
01:00
14°
1020.9 hPa 0.3 mm 12.6°
0
47%
07:00
13°
1020.7 hPa 0.3 mm 11.9°
1
56%
13:00
20°
1020.9 hPa 0.5 mm 13.4°
0
63%
19:00
18°
1020.3 hPa 0.6 mm 13.9°
1
60%
  CAPE Lifted Index Hail Supercell Tornado SRH 3km CL BTM PRES CL TOP PRES Swiss DWD icon SMHI TS
 06:07     20:55    Daglengte: 14:48 Vandaag
21:00 41 J/kg -3.0 K 0 % 0 % 0 % 0 m²/s² 0 0 -2.4 3
22:00 4 J/kg -2.1 K 0 % 0 % 0 % 0 m²/s² 0 0 -2.1 3
23:00 0 J/kg -2.0 K 0 % 0 % 0 % 0 m²/s² 0 0 -1.52 3
 06:08     20:53    Daglengte: 14:45 Morgen
00:00 1 J/kg -1.5 K 0 % 0 % 0 % 0 m²/s² 0 0 -1.23 61
01:00 21 J/kg -1.1 K 0 % 0 % 0 % 0 m²/s² 0 0 -0.98 3
02:00 0 J/kg -1.0 K 0 % 0 % 0 % 0 m²/s² 0 0 -0.91 80
03:00 0 J/kg -0.2 K 0 % 0 % 0 % 0 m²/s² 0 0 -0.08 3
04:00 0 J/kg 0.2 K 0 % 0 % 0 % 0 m²/s² 0 0 0.23 80
05:00 0 J/kg 0.2 K 0 % 0 % 0 % 0 m²/s² 0 0 0.47 95
06:00 0 J/kg -0.1 K 0 % 0 % 0 % 0 m²/s² 0 0 0.08 61
07:00 0 J/kg -0.1 K 0 % 0 % 0 % 0 m²/s² 0 0 -0.1 61
08:00 0 J/kg 0.2 K 0 % 0 % 0 % 0 m²/s² 0 0 0.2 61
09:00 0 J/kg 0.2 K 0 % 0 % 0 % 0 m²/s² 0 0 0.38 80
10:00 80 J/kg -0.1 K 0 % 0 % 0 % 0 m²/s² 0 0 0.17 80
11:00 225 J/kg -1.0 K 0 % 0 % 0 % 0 m²/s² 0 0 -0.49 61
12:00 387 J/kg -1.9 K 0 % 0 % 0 % 0 m²/s² 0 0 -1.12 61
13:00 528 J/kg -2.7 K 0 % 0 % 0 % 0 m²/s² 0 0 -1.65 61
14:00 538 J/kg -2.8 K 0 % 0 % 0 % 0 m²/s² 0 0 -1.81 80
15:00 806 J/kg -3.3 K 0 % 0 % 0 % 0 m²/s² 0 0 -3 80
16:00 764 J/kg -3.2 K 0 % 0 % 0 % 0 m²/s² 0 0 -2.99 80
17:00 721 J/kg -2.7 K 0 % 0 % 0 % 0 m²/s² 0 0 -2.22 80
18:00 567 J/kg -2.2 K 0 % 0 % 0 % 0 m²/s² 0 0 -1.36 3
19:00 319 J/kg -1.4 K 0 % 0 % 0 % 0 m²/s² 0 0 -0.26 80
20:00 144 J/kg -0.8 K 0 % 0 % 0 % 0 m²/s² 0 0 0.25 80
21:00 5 J/kg 1.3 K 0 % 0 % 0 % 0 m²/s² 0 0 2.44 80
22:00 0 J/kg 2.7 K 0 % 0 % 0 % 0 m²/s² 0 0 4.05 80
23:00 0 J/kg 3.5 K 0 % 0 % 0 % 0 m²/s² 0 0 5.03 3
 06:10     20:51    Daglengte: 14:41 Dinsdag 16 Aug
00:00 0 J/kg 4.0 K 0 % 0 % 0 % 0 m²/s² 0 0 6.01 3
01:00 0 J/kg 4.4 K 0 % 0 % 0 % 0 m²/s² 0 0 6.83 3
02:00 0 J/kg 4.3 K 0 % 0 % 0 % 0 m²/s² 0 0 6.79 3
03:00 0 J/kg 3.5 K 0 % 0 % 0 % 0 m²/s² 0 0 6.05 3
04:00 0 J/kg 3.7 K 0 % 0 % 0 % 0 m²/s² 0 0 6.04 3
05:00 0 J/kg 3.6 K 0 % 0 % 0 % 0 m²/s² 0 0 5.88 3
06:00 3 J/kg 4.1 K 0 % 0 % 0 % 0 m²/s² 0 0 6.35 3
07:00 5 J/kg 4.1 K 0 % 0 % 0 % 0 m²/s² 0 0 6.89 3
08:00 5 J/kg 3.8 K 0 % 0 % 0 % 0 m²/s² 0 0 7.25 3
09:00 7 J/kg 3.8 K 0 % 0 % 0 % 0 m²/s² 0 0 8.39 3
10:00 7 J/kg 4.3 K 0 % 0 % 0 % 0 m²/s² 0 0 10.99 3
11:00 5 J/kg 5.0 K 0 % 0 % 0 % 0 m²/s² 0 0 14.33 3
12:00 5 J/kg 5.2 K 0 % 0 % 0 % 0 m²/s² 0 0 15.46 3
13:00 7 J/kg 5.5 K 0 % 0 % 0 % 0 m²/s² 0 0 15.25 3
14:00 8 J/kg 5.5 K 0 % 0 % 0 % 0 m²/s² 0 0 15.25 3
15:00 22 J/kg 4.5 K 0 % 0 % 0 % 0 m²/s² 0 0 14.22 3
16:00 25 J/kg 4.7 K 0 % 0 % 0 % 0 m²/s² 0 0 13.61 3
17:00 23 J/kg 4.9 K 0 % 0 % 0 % 0 m²/s² 0 0 13.45 3
18:00 3 J/kg 5.9 K 0 % 0 % 0 % 0 m²/s² 0 0 14.45 3
19:00 0 J/kg 7.2 K 0 % 0 % 0 % 0 m²/s² 0 0 15.75 3
20:00 0 J/kg 7.2 K 0 % 0 % 0 % 0 m²/s² 0 0 15.42 3
21:00 0 J/kg 6.5 K 0 % 0 % 0 % 0 m²/s² 0 0 14.72 3
22:00 0 J/kg 6.0 K 0 % 0 % 0 % 0 m²/s² 0 0 13.89 3
23:00 0 J/kg 6.1 K 0 % 0 % 0 % 0 m²/s² 0 0 13.72 3
 06:12     20:49    Daglengte: 14:37 Woensdag 17 Aug
00:00 0 J/kg 6.1 K 0 % 0 % 0 % 0 m²/s² 0 0 13.69 3
01:00 0 J/kg 6.3 K 0 % 0 % 0 % 0 m²/s² 0 0 14.19 3
02:00 0 J/kg 6.9 K 0 % 0 % 0 % 0 m²/s² 0 0 15.09 3
03:00 0 J/kg 7.6 K 0 % 0 % 0 % 0 m²/s² 0 0 16.51 3
04:00 0 J/kg 8.9 K 0 % 0 % 0 % 0 m²/s² 0 0 18.2 3
05:00 0 J/kg 9.8 K 0 % 0 % 0 % 0 m²/s² 0 0 19.13 3
06:00 0 J/kg 11.2 K 0 % 0 % 0 % 0 m²/s² 0 0 20.53 3
07:00 0 J/kg 12.9 K 0 % 0 % 0 % 0 m²/s² 0 0 22.23 3
08:00 0 J/kg 14.1 K 0 % 0 % 0 % 0 m²/s² 0 0 23.43 3
09:00 0 J/kg 14.2 K 0 % 0 % 0 % 0 m²/s² 0 0 23.56 3
10:00 0 J/kg 14.5 K 0 % 0 % 0 % 0 m²/s² 0 0 23.89 3
11:00 0 J/kg 14.5 K 0 % 0 % 0 % 0 m²/s² 0 0 23.92 2
12:00 0 J/kg 14.5 K 0 % 0 % 0 % 0 m²/s² 0 0 23.95 2
13:00 0 J/kg 15.1 K 0 % 0 % 0 % 0 m²/s² 0 0 24.13 2
14:00 0 J/kg 15.5 K 0 % 0 % 0 % 0 m²/s² 0 0 24.53 2
15:00 0 J/kg 16.2 K 0 % 0 % 0 % 0 m²/s² 0 0 25.26 2
16:00 0 J/kg 16.2 K 0 % 0 % 0 % 0 m²/s² 0 0 24.9 2
17:00 0 J/kg 15.8 K 0 % 0 % 0 % 0 m²/s² 0 0 24.17 2
18:00 0 J/kg 15.8 K 0 % 0 % 0 % 0 m²/s² 0 0 23.27 1
19:00 0 J/kg 15.1 K 0 % 0 % 0 % 0 m²/s² 0 0 21.7 3
Temp Baro Wind Neerslag
  EWN Forecast EWN WRFDA DWD ICON FMI HIRLAM MET Norway GFS
 06:07     20:55    Daglengte: 14:48 Vandaag
22:00 19.8° 1004.8 hPa 1.8 m/s 0.0 mm 20.8° 1004.2 hPa 2.1 m/s 0.1 mm 18.9° 1005.0 hPa 0.8 m/s -1.9 mm 20.0° 1005.2 hPa 1.7 m/s 0.0 mm 16.5° 1005.7 hPa 4.2 m/s
 06:08     20:53    Daglengte: 14:45 Morgen
01:00 18.2° 1004.1 hPa 1.5 m/s 0.0 mm 17.5° 1004.4 hPa 4.8 m/s 4.7 mm 17.3° 1003.6 hPa 0.4 m/s 0.2 mm 18.3° 1004.1 hPa 2.2 m/s 0.0 mm 16.5° 1004.2 hPa 0.4 m/s
04:00 17.2° 1003.2 hPa 1.3 m/s 1.8 mm 17.2° 1002.4 hPa 0.5 m/s 6.9 mm 16.4° 1003.6 hPa 1.3 m/s 1.0 mm 17.3° 1002.9 hPa 2.2 m/s 0.0 mm 16.3° 1002.5 hPa 1.5 m/s
07:00 17.0° 1002.5 hPa 1.1 m/s 4.5 mm 16.2° 1002.5 hPa 2.1 m/s 9.4 mm 16.0° 1002.5 hPa 1.0 m/s 3.9 mm 17.3° 1002.4 hPa 1.6 m/s 0.0 mm 16.1° 1002.9 hPa 1.6 m/s
10:00 17.1° 1003.1 hPa 2.6 m/s 9.8 mm 16.6° 1003.0 hPa 1.5 m/s 45.2 mm 16.7° 1003.6 hPa 1.5 m/s 1.6 mm 18.5° 1002.1 hPa 2.8 m/s 0.0 mm 17.9° 1003.6 hPa 0.5 m/s
13:00 20.3° 1003.1 hPa 3.3 m/s 0.0 mm 20.7° 1002.7 hPa 2.0 m/s 54.3 mm 19.2° 1003.4 hPa 0.8 m/s 1.4 mm 22.2° 1001.8 hPa 4.1 m/s 0.0 mm 20.2° 1003.6 hPa 1.1 m/s
16:00 21.4° 1002.7 hPa 3.0 m/s 0.0 mm 20.0° 1002.6 hPa 3.6 m/s 57.0 mm 19.8° 1003.5 hPa 2.1 m/s 1.1 mm 21.7° 1001.3 hPa 2.9 m/s 0.0 mm 20.1° 1003.4 hPa 1.9 m/s
19:00 20.4° 1003.2 hPa 3.2 m/s 0.0 mm 19.8° 1003.3 hPa 5.3 m/s 58.7 mm 18.8° 1003.9 hPa 1.7 m/s 1.2 mm 21.2° 1000.7 hPa 2.5 m/s 0.0 mm 19.0° 1004.1 hPa 2.1 m/s
22:00 17.2° 1005.3 hPa 3.0 m/s 0.0 mm 15.7° 1005.4 hPa 5.5 m/s 59.7 mm 17.1° 1005.8 hPa 2.5 m/s 2.2 mm 19.4° 1001.9 hPa 1.6 m/s 0.0 mm 16.1° 1006.4 hPa 3.7 m/s
 06:10     20:51    Daglengte: 14:41 Dinsdag 16 Aug
01:00 15.9° 1006.0 hPa 3.7 m/s 0.0 mm 12.9° 1005.8 hPa 4.1 m/s 59.7 mm 15.9° 1006.7 hPa 3.3 m/s 0.1 mm 17.6° 1002.0 hPa 2.9 m/s 0.0 mm 13.4° 1007.3 hPa 3.5 m/s
04:00 15.0° 1006.3 hPa 4.3 m/s 0.0 mm 13.1° 1005.7 hPa 4.6 m/s 59.7 mm 15.0° 1007.1 hPa 3.7 m/s 0.0 mm 16.7° 1001.5 hPa 4.0 m/s 0.0 mm 11.5° 1007.8 hPa 3.0 m/s
07:00 14.5° 1007.4 hPa 4.5 m/s 0.0 mm 13.8° 1006.8 hPa 5.3 m/s 59.9 mm 14.3° 1008.2 hPa 4.2 m/s 0.0 mm 16.8° 1002.0 hPa 3.5 m/s 0.0 mm 11.8° 1008.9 hPa 3.1 m/s
10:00 16.0° 1008.6 hPa 6.3 m/s 0.0 mm 14.5° 1007.9 hPa 7.8 m/s 60.1 mm 15.8° 1009.5 hPa 6.0 m/s 0.0 mm 18.5° 1003.8 hPa 5.7 m/s 0.0 mm 14.6° 1009.8 hPa 5.7 m/s
13:00 18.5° 1009.0 hPa 6.5 m/s 0.0 mm 16.5° 1008.9 hPa 8.0 m/s 60.2 mm 17.8° 1009.7 hPa 5.9 m/s 0.0 mm 19.5° 1004.6 hPa 6.2 m/s 0.0 mm 16.1° 1010.5 hPa 5.6 m/s
16:00 18.5° 1010.4 hPa 7.6 m/s 0.0 mm 17.7° 1009.7 hPa 7.9 m/s 60.2 mm 18.2° 1010.8 hPa 6.4 m/s 0.0 mm 16.2° 1011.5 hPa 5.6 m/s
19:00 17.2° 1011.6 hPa 7.5 m/s 0.0 mm 16.7° 1011.2 hPa 7.4 m/s 60.2 mm 17.1° 1011.6 hPa 6.7 m/s 0.0 mm 15.2° 1013.1 hPa 5.6 m/s
22:00 14.5° 1013.8 hPa 6.4 m/s 0.0 mm 11.8° 1013.7 hPa 4.6 m/s 60.2 mm 14.7° 1013.4 hPa 6.3 m/s 0.0 mm 13.3° 1015.4 hPa 4.9 m/s
 06:12     20:49    Daglengte: 14:37 Woensdag 17 Aug
01:00 13.3° 1014.9 hPa 5.7 m/s 0.0 mm 10.8° 1014.7 hPa 5.5 m/s 60.2 mm 13.7° 1014.3 hPa 5.0 m/s 0.1 mm 11.7° 1016.9 hPa 3.6 m/s
04:00 12.3° 1015.6 hPa 4.5 m/s 0.0 mm 10.9° 1015.5 hPa 4.5 m/s 60.3 mm 13.4° 1014.4 hPa 3.8 m/s 0.0 mm 11.9° 1017.4 hPa 3.1 m/s
07:00 11.7° 1016.7 hPa 3.9 m/s 0.0 mm 9.4° 1016.5 hPa 4.3 m/s 60.3 mm 13.8° 1015.7 hPa 3.7 m/s 0.0 mm 12.3° 1018.9 hPa 3.0 m/s
10:00 15.5° 1017.6 hPa 4.8 m/s 0.0 mm 13.3° 1017.7 hPa 4.7 m/s 60.3 mm 16.6° 1016.4 hPa 5.7 m/s 0.0 mm 14.5° 1019.9 hPa 3.2 m/s
13:00 18.1° 1017.2 hPa 4.9 m/s 0.0 mm 15.6° 1017.9 hPa 4.0 m/s 60.3 mm 18.8° 1017.1 hPa 5.2 m/s 0.0 mm 17.4° 1020.2 hPa 3.2 m/s
16:00 19.5° 1016.5 hPa 4.0 m/s 0.0 mm 17.2° 1016.9 hPa 3.4 m/s 60.3 mm 20.1° 1016.5 hPa 4.1 m/s 0.0 mm 18.3° 1019.7 hPa 2.5 m/s
19:00 18.1° 1016.4 hPa 3.0 m/s 0.0 mm 16.6° 1016.9 hPa 2.5 m/s 60.3 mm 18.4° 1016.3 hPa 3.1 m/s 0.0 mm 15.9° 1019.7 hPa 2.4 m/s
22:00 12.9° 1019.7 hPa 1.6 m/s 18.2 mm 12.9° 1019.7 hPa 1.6 m/s 18.2 mm
 06:13     20:47    Daglengte: 14:34 Donderdag 18 Aug
01:00 13.4° 1019.1 hPa 2.2 m/s 18.2 mm 13.4° 1019.1 hPa 2.2 m/s 18.2 mm
04:00 13.7° 1017.5 hPa 2.9 m/s 18.2 mm 13.7° 1017.5 hPa 2.9 m/s 18.2 mm
07:00 12.0° 1016.3 hPa 4.0 m/s 20.0 mm 12.0° 1016.3 hPa 4.0 m/s 20.0 mm
10:00 14.4° 1016.1 hPa 4.6 m/s 20.2 mm 14.4° 1016.1 hPa 4.6 m/s 20.2 mm
13:00 16.2° 1015.5 hPa 3.9 m/s 20.2 mm 16.2° 1015.5 hPa 3.9 m/s 20.2 mm
16:00 18.6° 1014.2 hPa 3.4 m/s 20.4 mm 18.6° 1014.2 hPa 3.4 m/s 20.4 mm
19:00 18.8° 1012.8 hPa 3.3 m/s 22.0 mm 18.8° 1012.8 hPa 3.3 m/s 22.0 mm
22:00 17.1° 1011.6 hPa 3.7 m/s 27.1 mm 17.1° 1011.6 hPa 3.7 m/s 27.1 mm
 06:15     20:45    Daglengte: 14:30 Vrijdag 19 Aug
01:00 16.6° 1010.9 hPa 4.4 m/s 33.0 mm 16.6° 1010.9 hPa 4.4 m/s 33.0 mm
04:00 13.0° 1011.9 hPa 5.0 m/s 33.2 mm 13.0° 1011.9 hPa 5.0 m/s 33.2 mm
07:00 11.4° 1012.9 hPa 4.0 m/s 33.3 mm 11.4° 1012.9 hPa 4.0 m/s 33.3 mm
10:00 14.8° 1013.2 hPa 5.2 m/s 33.3 mm 14.8° 1013.2 hPa 5.2 m/s 33.3 mm
13:00 18.3° 1013.3 hPa 7.0 m/s 33.6 mm 18.3° 1013.3 hPa 7.0 m/s 33.6 mm
16:00 19.2° 1014.0 hPa 7.0 m/s 33.7 mm 19.2° 1014.0 hPa 7.0 m/s 33.7 mm
19:00 16.0° 1015.8 hPa 5.2 m/s 33.7 mm 16.0° 1015.8 hPa 5.2 m/s 33.7 mm
22:00 11.5° 1017.8 hPa 3.2 m/s 33.8 mm 11.5° 1017.8 hPa 3.2 m/s 33.8 mm
 06:17     20:42    Daglengte: 14:25 Zaterdag 20 Aug
01:00 10.3° 1019.0 hPa 3.4 m/s 33.8 mm 10.3° 1019.0 hPa 3.4 m/s 33.8 mm
04:00 10.4° 1019.0 hPa 4.2 m/s 33.8 mm 10.4° 1019.0 hPa 4.2 m/s 33.8 mm
07:00 10.6° 1019.5 hPa 4.9 m/s 33.8 mm 10.6° 1019.5 hPa 4.9 m/s 33.8 mm
10:00 15.7° 1019.6 hPa 6.5 m/s 33.8 mm 15.7° 1019.6 hPa 6.5 m/s 33.8 mm
13:00 19.9° 1018.7 hPa 6.9 m/s 33.8 mm 19.9° 1018.7 hPa 6.9 m/s 33.8 mm
16:00 20.4° 1017.9 hPa 6.5 m/s 33.8 mm 20.4° 1017.9 hPa 6.5 m/s 33.8 mm
19:00 19.2° 1017.1 hPa 4.5 m/s 33.8 mm 19.2° 1017.1 hPa 4.5 m/s 33.8 mm
22:00 14.2° 1017.0 hPa 2.7 m/s 35.0 mm 14.2° 1017.0 hPa 2.7 m/s 35.0 mm
 06:19     20:40    Daglengte: 14:21 Zondag 21 Aug
01:00 14.1° 1014.8 hPa 4.7 m/s 37.2 mm 14.1° 1014.8 hPa 4.7 m/s 37.2 mm
04:00 15.3° 1011.8 hPa 4.2 m/s 40.5 mm 15.3° 1011.8 hPa 4.2 m/s 40.5 mm
07:00 16.4° 1011.5 hPa 4.3 m/s 42.0 mm 16.4° 1011.5 hPa 4.3 m/s 42.0 mm
10:00 17.8° 1012.0 hPa 4.9 m/s 42.2 mm 17.8° 1012.0 hPa 4.9 m/s 42.2 mm
13:00 21.0° 1010.6 hPa 5.7 m/s 42.5 mm 21.0° 1010.6 hPa 5.7 m/s 42.5 mm
16:00 19.4° 1010.0 hPa 5.4 m/s 42.9 mm 19.4° 1010.0 hPa 5.4 m/s 42.9 mm
19:00 17.8° 1007.6 hPa 7.7 m/s 47.8 mm 17.8° 1007.6 hPa 7.7 m/s 47.8 mm
 06:20     20:38    Daglengte: 14:18 Maandag 22 Aug
01:00 16.8° 1008.1 hPa 9.4 m/s 48.2 mm 16.8° 1008.1 hPa 9.4 m/s 48.2 mm
07:00 15.6° 1010.0 hPa 4.7 m/s 48.2 mm 15.6° 1010.0 hPa 4.7 m/s 48.2 mm
13:00 20.7° 1010.8 hPa 6.4 m/s 48.9 mm 20.7° 1010.8 hPa 6.4 m/s 48.9 mm
19:00 19.5° 1010.4 hPa 6.3 m/s 49.3 mm 19.5° 1010.4 hPa 6.3 m/s 49.3 mm
 06:22     20:36    Daglengte: 14:14 Dinsdag 23 Aug
01:00 13.1° 1013.0 hPa 5.4 m/s 49.6 mm 13.1° 1013.0 hPa 5.4 m/s 49.6 mm
07:00 13.7° 1013.0 hPa 4.1 m/s 49.7 mm 13.7° 1013.0 hPa 4.1 m/s 49.7 mm
13:00 17.4° 1013.9 hPa 6.8 m/s 50.0 mm 17.4° 1013.9 hPa 6.8 m/s 50.0 mm
19:00 16.2° 1014.7 hPa 5.3 m/s 50.3 mm 16.2° 1014.7 hPa 5.3 m/s 50.3 mm
 06:24     20:33    Daglengte: 14:09 Woensdag 24 Aug
01:00 12.5° 1017.7 hPa 4.8 m/s 50.4 mm 12.5° 1017.7 hPa 4.8 m/s 50.4 mm
07:00 13.1° 1020.0 hPa 3.2 m/s 50.5 mm 13.1° 1020.0 hPa 3.2 m/s 50.5 mm
13:00 16.4° 1023.4 hPa 3.1 m/s 50.6 mm 16.4° 1023.4 hPa 3.1 m/s 50.6 mm
19:00 19.2° 1017.8 hPa 1.0 m/s 0.8 mm
 06:26     20:31    Daglengte: 14:05 Donderdag 25 Aug
01:00 13.7° 1018.8 hPa 1.1 m/s 0.5 mm
07:00 12.9° 1018.9 hPa 1.0 m/s 0.0 mm
13:00 20.8° 1019.3 hPa 0.8 m/s 0.2 mm
19:00 19.3° 1018.7 hPa 0.2 m/s 0.6 mm
 06:27     20:29    Daglengte: 14:02 Vrijdag 26 Aug
01:00 14.0° 1019.6 hPa 0.3 m/s 0.2 mm
07:00 12.9° 1019.6 hPa 0.4 m/s 0.5 mm
13:00 19.6° 1020.0 hPa 0.8 m/s 0.4 mm
19:00 18.0° 1019.8 hPa 0.9 m/s 0.7 mm
 06:29     20:26    Daglengte: 13:57 Zaterdag 27 Aug
01:00 13.1° 1021.0 hPa 0.8 m/s 0.1 mm
07:00 12.3° 1021.1 hPa 0.7 m/s 0.0 mm
13:00 19.6° 1021.5 hPa 1.1 m/s 0.2 mm
19:00 18.3° 1020.9 hPa 1.1 m/s 0.7 mm
 06:31     20:24    Daglengte: 13:53 Zondag 28 Aug
01:00 13.2° 1021.9 hPa 0.4 m/s 0.2 mm
07:00 12.6° 1021.3 hPa 0.3 m/s 0.4 mm
13:00 20.0° 1021.3 hPa 0.7 m/s 0.4 mm
19:00 18.4° 1020.4 hPa 0.5 m/s 0.5 mm
 06:32     20:22    Daglengte: 13:50 Maandag 29 Aug
01:00 14.1° 1020.9 hPa 0.3 m/s 0.3 mm
07:00 13.0° 1020.7 hPa 0.6 m/s 0.3 mm
13:00 19.6° 1020.9 hPa 0.4 m/s 0.5 mm
19:00 18.4° 1020.3 hPa 0.6 m/s 0.6 mm
FMI Hirlam - 7.5 km EWN WRFDA - 12 km DWD ICON - 7 km GFS - 25 km Basiskaart






























































Updatetijd (Europe/Amsterdam) Resolutie Lengte Stap
FMI Hirlam 20:00, 02:00, 08:00, 14:00 7.5 km 49h 1h
EWN WRFDA 16:30, 22:30, 04:30, 10:30 12 km 73h 1h
DWD ICON 18:00, 00:00, 06:00, 12:00 7 km 75h 1h
GFS 19:45, 01:45, 07:45, 13:45 25 km 237h 3h
30+ mm
25-30 mm
20-25 mm
15-20 mm
10-15 mm
6-10 mm
4-6 mm
2-4 mm
1-2 mm
0.5-1 mm
0.2-0.5 mm
0.1-0.2 mm
30+ mm
25-30 mm
20-25 mm
15-20 mm
10-15 mm
6-10 mm
4-6 mm
2-4 mm
1-2 mm
0.5-1 mm
0.2-0.5 mm
0.1-0.2 mm
Sneeuwval
Natte sneeuw
Hagel
Vorst
30+ mm
25-30 mm
20-25 mm
15-20 mm
10-15 mm
6-10 mm
4-6 mm
2-4 mm
1-2 mm
0.5-1 mm
0.2-0.5 mm
0.1-0.2 mm
Sneeuwval
Natte sneeuw
Hagel
Vorst
Onweer
50 mm
40 mm
30 mm
26 mm
22 mm
18 mm
14 mm
10 mm
9 mm
8 mm
7 mm
6 mm
5 mm
4.5 mm
4 mm
3.5 mm
3 mm
2.5 mm
2 mm
1.5 mm
1 mm
0.8 mm
0.6 mm
0.4 mm
0.2 mm
0.05 mm
35°
30°
25°
20°
15°
10°
-5°
-10°
-15°
-20°
-25°
-30°
-35°
33> m/s
29 m/s
25 m/s
21 m/s
17 m/s
14 m/s
11 m/s
8 m/s
5 m/s
3 m/s
0 m/s
2600 J/kg
2400 J/kg
2200 J/kg
2000 J/kg
1800 J/kg
1600 J/kg
1400 J/kg
1200 J/kg
1000 J/kg
800 J/kg
600 J/kg
400 J/kg
200 J/kg
70 dBZ
65 dBZ
60 dBZ
55 dBZ
50 dBZ
45 dBZ
40 dBZ
35 dBZ
30 dBZ
25 dBZ
20 dBZ
15 dBZ
10 dBZ
5 dBZ
-1 K
-2 K
-3 K
-4 K
-5 K
-6 K
-7 K
-8 K
-9 K
950 m²/s²
900 m²/s²
850 m²/s²
800 m²/s²
750 m²/s²
700 m²/s²
650 m²/s²
600 m²/s²
550 m²/s²
500 m²/s²
450 m²/s²
400 m²/s²
350 m²/s²
300 m²/s²
250 m²/s²
200 m²/s²
150 m²/s²
100 m²/s²
46 m/s
44 m/s
42 m/s
40 m/s
38 m/s
36 m/s
34 m/s
32 m/s
30 m/s
28 m/s
26 m/s
24 m/s
22 m/s
20 m/s
16 m/s
12 m/s
8 m/s
4 m/s
30 m/s
28 m/s
26 m/s
24 m/s
22 m/s
20 m/s
18 m/s
16 m/s
14 m/s
12 m/s
10 m/s
8 m/s
6 m/s
4 m/s
2 m/s
3.0
2.8
2.6
2.4
2.2
2.0
1.8
1.6
1.4
1.2
1.0
0.8
0.6
0.4
0.2
15
14
13
12
11
10
9
8
7
6
5
4
3
2
1
90%
80%
70%
60%
50%
40%
30%
20%
10%
42
40
38
36
34
32
30
28
26
24
22
20
18
16
14
12
90+ cm
80-90 cm
70-80 cm
60-70 cm
50-60 cm
40-50 cm
30-40 cm
20-30 cm
10-20 cm
1-10 cm
Sneeuwval
Natte sneeuw
Regen
>120 mm
115 mm
110 mm
105 mm
100 mm
95 mm
90 mm
85 mm
80 mm
75 mm
70 mm
65 mm
60 mm
55 mm
50 mm
45 mm
45 mm
40 mm
35 mm
30 mm
25 mm
20 mm
15 mm
10 mm
5 mm
0.1 mm
960 hPa
880 hPa
800 hPa
720 hPa
640 hPa
560 hPa
584 gpdm
568 gpdm
552 gpdm
536 gpdm
520 gpdm
504 gpdm